Location: ??????
(41.3164°N, 22.6615°E)
Time: 20:57:44
(UTC+00:00)

ZACube-1 - Visible Passes

Search period start: 28 June 2022 00:00
Search period end: 08 July 2022 00:00
Orbit: 581 x 662 km, 97.6° (Epoch: 28 June)

Date Brightness Start Highest point End Pass type
(mag) Time Alt. Az. Time Alt. Az. Time Alt. Az.
28 Jun ? 01:21:29 10° NE 01:24:27 17° E 01:27:26 10° SE visible
29 Jun ? 01:38:38 10° NE 01:42:24 26° E 01:46:12 10° SSE visible
30 Jun ? 01:56:05 10° NNE 02:00:19 41° E 02:04:35 10° SSE visible
01 Jul ? 02:13:43 10° NNE 02:18:10 65° E 02:22:40 10° S visible
03 Jul ? 01:14:43 10° NE 01:17:20 15° E 01:19:57 10° SE visible
04 Jul ? 01:31:42 10° NE 01:35:18 23° E 01:38:54 10° SSE visible
05 Jul ? 01:49:03 10° NNE 01:53:13 35° E 01:57:22 10° SSE visible
06 Jul ? 02:06:37 10° NNE 02:11:05 55° E 02:15:32 10° S visible
07 Jul ? 02:24:21 10° NNE 02:28:53 86° E 02:33:27 10° SSW visible
